Change the Weather History Date:

Tuesday, November 13, 2012

  Actual Average Record
Temperature  
Mean Temperature 60 °F -  
Max Temperature 73 °F 75 °F 86 °F (2001)
Min Temperature 48 °F 55 °F 50 °F (2002)
Degree Days  
Heating Degree Days 4    
Growing Degree Days 10 (Base 50)    
Moisture  
Dew Point 50 °F    
Average Humidity 67    
Maximum Humidity 88    
Minimum Humidity 34    
Precipitation  
Precipitation 0.00 in - - ()
Sea Level Pressure  
Sea Level Pressure 30.09 in    
Wind  
Wind Speed 7 mph ()    
Max Wind Speed 21 mph    
Max Gust Speed -    
Averages and records for this station are not official NWS values.
T = Trace of Precipitation, MM = Missing Value Source: Averaged Metar Reports

Daily Weather History Graph

Daily Weather History Graph

Search for Another Location

Airport or City:

Trip Planner

Search our weather history database for the weather conditions in past years. The results will help you decide how hot, cold, wet, or windy it might be!

Date:

Astronomy

Nov. 13, 2012 Rise Set
Actual Time 5:38 AM SAST 7:25 PM SAST
Civil Twilight 5:11 AM SAST 7:52 PM SAST
Nautical Twilight 4:38 AM SAST 8:24 PM SAST
Astronomical Twilight 4:04 AM SAST 8:59 PM SAST
Moon 5:02 AM SAST (11/13) 7:06 PM SAST (11/13)
Length of Visible Light 14h 40m
Length of Day
13h 46m
Waning Crescent, 0% of the Moon is Illuminated
Nov 13
Waning Crescent
Nov 14
New
Nov 20
First Quarter
Nov 28
Full
Dec 6
Last Quarter

Hourly Weather History & Observations

Time (SAST) Temp. Dew Point Humidity Pressure Visibility Wind Dir Wind Speed Gust Speed Precip Events Conditions
12:00 AM 55.4 °F 50.0 °F 82% 30.04 in - SW 5.8 mph - N/A   Unknown
1:00 AM 55.4 °F 48.2 °F 77% 30.04 in - SW 3.5 mph - N/A   Unknown
2:00 AM 53 °F 48 °F 79% 30.06 in - SW 4.6 mph - -  
2:00 AM 51.8 °F 48.2 °F 88% 30.04 in - SW 3.5 mph - N/A   Unknown
3:00 AM 51.8 °F 46.4 °F 82% 30.04 in - SSW 2.3 mph - N/A   Unknown
4:00 AM 50.0 °F 46.4 °F 87% 30.06 in - SSW 4.6 mph - N/A   Unknown
5:00 AM 50 °F 46 °F 81% 30.08 in - ESE 2.3 mph - -  
5:00 AM 50.0 °F 44.6 °F 82% 30.06 in - ESE 2.3 mph - N/A   Unknown
6:00 AM 50.0 °F 46.4 °F 87% 30.09 in - NNE 1.2 mph - N/A   Unknown
8:00 AM 61 °F 53 °F 66% 30.15 in - SSW 3.5 mph - -  
8:00 AM 60.8 °F 51.8 °F 72% 30.15 in - SSW 3.5 mph - N/A   Unknown
10:00 AM 68.0 °F 48.2 °F 49% 30.12 in - South 6.9 mph - N/A   Unknown
11:00 AM 72 °F 49 °F 34% 30.14 in - SW 10.4 mph - -  
11:00 AM - - N/A% 30.04 in - WSW 11.5 mph - N/A   Clear
12:00 PM 71.6 °F 50.0 °F 46% 30.12 in - SW 12.7 mph - N/A   Unknown
1:00 PM - - N/A% 30.12 in - SSW 11.5 mph - N/A   Clear
2:00 PM 72 °F 50 °F 34% 30.12 in - SW 15.0 mph - -  
2:00 PM 71.6 °F 48.2 °F 43% 30.12 in - SW 13.8 mph - N/A   Unknown
3:00 PM 71.6 °F 50.0 °F 46% 30.09 in - SW 15.0 mph - N/A   Unknown
4:00 PM 69.8 °F 50.0 °F 49% 30.09 in - SW 17.3 mph - N/A   Unknown
5:00 PM 69 °F 51 °F 42% 30.09 in - SSW 20.7 mph - -  
5:00 PM 68.0 °F 50.0 °F 52% 30.09 in - SSW 20.7 mph - N/A   Unknown
6:00 PM 66.2 °F 51.8 °F 60% 30.06 in - SW 18.4 mph - N/A   Unknown
7:00 PM 64.4 °F 51.8 °F 64% 30.09 in - SSW 17.3 mph - N/A   Unknown
8:00 PM 61 °F 53 °F 69% 30.10 in - SSW 15.0 mph - -  
8:00 PM 60.8 °F 51.8 °F 72% 30.09 in - SSW 13.8 mph - N/A   Unknown
9:00 PM 59.0 °F 53.6 °F 82% 30.09 in - SSW 13.8 mph - N/A   Unknown
10:00 PM 59.0 °F 53.6 °F 82% 30.09 in - SSW 12.7 mph - N/A   Unknown
11:00 PM 58 °F 53 °F 78% 30.11 in - SSW 8.1 mph - -  
11:00 PM 57.2 °F 51.8 °F 82% 30.09 in - SSW 6.9 mph - N/A   Unknown